This demonstration page uses our WeatherBlox Daily Observations layout. Learn more.

Left ArrowRight Arrow

39.92423, -83.80882

Hourly Observations for March 5, 2017

Temp ( °F °C ) Dew Point ( °F °C ) Humidity (%) Winds ( mph kmh ) Pressure ( in mb ) Visibility ( mi km ) Precip ( " mm )
12:56 am 00:56 Clear 28 -2.2 20 -6.7 72 72 ESE 14 22 30.54 1034 10 16.0934 0 0
1:56 am 01:56 Clear 28 -2.2 20 -6.7 72 72 ESE 14 22 30.55 1034 10 16.0934 0 0
2:56 am 02:56 Clear 27 -2.8 20 -6.7 75 75 ESE 12 19 30.53 1034 10 16.0934 0 0
3:56 am 03:56 Clear 27 -2.8 19 -7.2 72 72 ESE 13 20 30.52 1033 10 16.0934 0 0
4:56 am 04:56 Clear 26 -3.3 19 -7.2 75 75 ESE 13 20 30.51 1033 10 16.0934 0 0
5:56 am 05:56 Clear 26 -3.3 18 -7.8 71 71 ESE 13 20 30.51 1033 10 16.0934 0 0
6:56 am 06:56 Clear 26 -3.3 18 -7.8 71 71 ESE 13 20 30.51 1033 10 16.0934 0 0
7:56 am 07:56 Sunny 28 -2.2 19 -7.2 69 69 ESE 13 20 30.51 1033 10 16.0934 0 0
8:56 am 08:56 Sunny 32 0 19 -7.2 59 59 ESE 15 24 30.5 1033 10 16.0934 0 0
9:56 am 09:56 Sunny 37 2.8 21 -6.1 52 52 SE 14 22 30.49 1032 10 16.0934 0 0
10:56 am 10:56 Sunny 40 4.4 25 -3.9 55 55 SSE 14 22 30.47 1032 10 16.0934 0 0
11:56 am 11:56 Sunny 45 7.2 27 -2.8 49 49 SE 12 19 30.45 1031 10 16.0934 0 0
12:56 pm 12:56 Sunny 49 9.4 31 -0.6 50 50 SE 10 17 30.4 1030 10 16.0934 0 0
1:56 pm 13:56 Sunny 56 13.3 33 0.6 42 42 SSE 13 20 30.35 1028 10 16.0934 0 0
2:56 pm 14:56 Partly Cloudy 59 15 34 1.1 39 39 SSE 13 20 30.32 1027 10 16.0934 0 0
3:56 pm 15:56 Mostly Sunny 59 15 31 -0.6 35 35 SSW 13 20 30.3 1026 10 16.0934 0 0
4:56 pm 16:56 Cloudy 59 15 32 0 36 36 S 8 13 30.29 1026 10 16.0934 0 0
5:56 pm 17:56 Cloudy 57 13.9 35 1.7 44 44 SSE 7 11 30.27 1025 10 16.0934 0 0
6:56 pm 18:56 Cloudy 54 12.2 35 1.7 49 49 SE 7 11 30.28 1026 10 16.0934 0 0
7:56 pm 19:56 Mostly Clear 52 11.1 33 0.6 49 49 SSE 7 11 30.28 1026 10 16.0934 0 0
8:56 pm 20:56 Cloudy 51 10.6 33 0.6 50 50 SSE 7 11 30.27 1025 10 16.0934 0 0
9:56 pm 21:56 Cloudy 52 11.1 32 0 47 47 S 7 11 30.27 1025 10 16.0934 0 0
10:56 pm 22:56 Cloudy 52 11.1 32 0 47 47 S 7 11 30.27 1025 10 16.0934 0 0
11:56 pm 23:56 Cloudy 52 11.1 32 0 47 47 S 7 11 30.25 1024 10 16.0934 0 0

Powered by AerisWeather